Hourly Data Report for October 06, 2017

All times are specified in Local Standard Time (LST). Add 1 hour to adjust for Daylight Saving Time where and when it is observed.

SIOUX LOOKOUT A
ONTARIO

50°06'51.000" N
91°54'29.000" W
383.10 m
6037776
71842
YXL

Download Data

Hourly Data (October 2017)
Hourly Data Report for October 6, 2017
Temp Definition
°C
Dew Point Temp Definition
°C
Rel Hum Definition
%
Wind Dir Definition
10's deg

Wind Spd Definition
km/h
Visibility Definition
km
Stn Press Definition
kPa
Hmdx Definition


Wind Chill Definition


Weather Definition


TIME
00:00 Legend Double Dagger 1.3 0.2 92 27 5 24.1 97.11     Clear
01:00 Legend Double Dagger -0.8 -1.2 97 22 4 24.1 97.09   -2 LegendNANA
02:00 Legend Double Dagger 0.2 -0.2 97 26 4 24.1 97.10     LegendNANA
03:00 Legend Double Dagger 1.1 0.6 97 23 10 24.1 97.10     Clear
04:00 Legend Double Dagger 2.4 1.2 92 23 11 24.1 97.06     LegendNANA
05:00 Legend Double Dagger 2.4 1.2 92 22 8 24.1 97.03     LegendNANA
06:00 Legend Double Dagger 3.6 2.4 92 22 8 24.1 97.01     Mostly Cloudy
07:00 Legend Double Dagger 4.4 2.6 88 22 7 24.1 96.98     LegendNANA
08:00 Legend Double Dagger 6.3 3.0 79 22 13 24.1 96.97     LegendNANA
09:00 Legend Double Dagger 8.4 3.1 69 22 11 24.1 96.91     Clear
10:00 Legend Double Dagger 10.7 2.5 57 23 18 24.1 96.90     LegendNANA
11:00 Legend Double Dagger 12.4 2.9 52 23 14 24.1 96.78     LegendNANA
12:00 Legend Double Dagger 13.2 3.7 52 22 18 24.1 96.80     Mainly Clear
13:00 Legend Double Dagger 13.0 3.0 50 21 13 24.1 96.65     LegendNANA
14:00 Legend Double Dagger 12.8 3.1 51 22 16 24.1 96.58     LegendNANA
15:00 Legend Double Dagger 13.6 2.1 45 21 17 24.1 96.43     Mainly Clear
16:00 Legend Double Dagger 13.7 2.7 47 22 15 24.1 96.33     LegendNANA
17:00 Legend Double Dagger 11.4 2.6 54 20 14 24.1 96.28     LegendNANA
18:00 Legend Double Dagger 10.1 2.5 59 19 9 24.1 96.24     Mostly Cloudy
19:00 Legend Double Dagger 8.6 2.4 65 18 12 24.1 96.24     LegendNANA
20:00 Legend Double Dagger 7.8 3.3 73 19 10 24.1 96.20     LegendNANA
21:00 Legend Double Dagger 6.8 3.6 80 16 11 24.1 96.11     Clear
22:00 Legend Double Dagger 6.2 3.6 84 18 10 24.1 96.03     LegendNANA
23:00 Legend Double Dagger 6.3 4.0 85 19 7 24.1 95.94     LegendNANA

Notes on Data Quality.

Legend

  • E = Estimated
  • M = Missing
  • NA = Not Available
  • ‡ = Partner data that is not subject to review by the National Climate Archives
Date modified: